Time,TemperatureF,DewpointF,PressureIn,WindDirection,WindDirectionDegrees,WindSpeedMPH,WindSpeedGustMPH,Humidity,HourlyPrecipIn,Conditions,Clouds,dailyrainin,SoftwareType,DateUTC
2013-08-28 00:00:00,72.1,43.7,29.88,NW,315,0.0,0.0,36,0.00,,---,0.00,VWS V14.01,2013-08-28 04:00:00,
2013-08-28 00:15:00,72.5,44.1,29.88,NW,315,0.0,0.0,36,0.00,,---,0.00,VWS V14.01,2013-08-28 04:15:00,
2013-08-28 00:30:00,72.8,44.3,29.88,NW,315,0.0,3.0,36,0.00,,---,0.00,VWS V14.01,2013-08-28 04:30:00,
2013-08-28 00:45:00,72.5,44.8,29.88,NW,315,0.0,0.0,37,0.00,,---,0.00,VWS V14.01,2013-08-28 04:45:00,
2013-08-28 01:00:00,72.2,43.8,29.88,NW,315,0.0,0.0,36,0.00,,---,0.00,VWS V14.01,2013-08-28 05:00:00,
2013-08-28 01:15:00,71.9,43.5,29.87,NW,315,0.0,0.0,36,0.00,,---,0.00,VWS V14.01,2013-08-28 05:15:00,
2013-08-28 01:30:00,70.9,42.6,29.87,NW,315,0.0,1.0,36,0.00,,---,0.00,VWS V14.01,2013-08-28 05:30:00,
2013-08-28 01:45:00,70.7,42.5,29.86,NW,315,0.0,0.0,36,0.00,,---,0.00,VWS V14.01,2013-08-28 05:45:00,
2013-08-28 02:00:00,70.5,42.3,29.86,NW,315,0.0,0.0,36,0.00,,---,0.00,VWS V14.01,2013-08-28 06:00:00,
2013-08-28 02:15:00,71.3,43.0,29.85,NW,315,0.0,0.0,36,0.00,,---,0.00,VWS V14.01,2013-08-28 06:15:00,
2013-08-28 02:30:00,70.8,42.5,29.85,NW,315,0.0,0.0,36,0.00,,---,0.00,VWS V14.01,2013-08-28 06:30:00,
2013-08-28 02:45:00,70.4,42.2,29.85,NW,315,0.0,0.0,36,0.00,,---,0.00,VWS V14.01,2013-08-28 06:45:00,
2013-08-28 03:00:00,69.9,41.8,29.85,NW,315,0.0,0.0,36,0.00,,---,0.00,VWS V14.01,2013-08-28 07:00:00,
2013-08-28 03:15:00,69.7,42.3,29.85,NW,315,0.0,0.0,37,0.00,,---,0.00,VWS V14.01,2013-08-28 07:15:00,
2013-08-28 03:30:00,69.5,42.1,29.85,NW,315,0.0,0.0,37,0.00,,---,0.00,VWS V14.01,2013-08-28 07:30:00,
2013-08-28 03:45:00,69.1,41.8,29.84,NW,315,0.0,0.0,37,0.00,,---,0.00,VWS V14.01,2013-08-28 07:45:00,
2013-08-28 04:00:00,69.0,42.4,29.84,NW,315,0.0,0.0,38,0.00,,---,0.00,VWS V14.01,2013-08-28 08:00:00,
2013-08-28 04:15:00,68.5,42.6,29.84,NW,315,0.0,0.0,39,0.00,,---,0.00,VWS V14.01,2013-08-28 08:15:00,
2013-08-28 04:30:00,68.1,42.2,29.84,NW,315,0.0,0.0,39,0.00,,---,0.00,VWS V14.01,2013-08-28 08:30:00,
2013-08-28 04:45:00,67.9,42.7,29.84,NW,315,0.0,0.0,40,0.00,,---,0.00,VWS V14.01,2013-08-28 08:45:00,
2013-08-28 05:00:00,68.3,43.1,29.84,NW,315,0.0,0.0,40,0.00,,---,0.00,VWS V14.01,2013-08-28 09:00:00,
2013-08-28 05:15:00,68.4,43.8,29.84,NW,315,0.0,0.0,41,0.00,,---,0.00,VWS V14.01,2013-08-28 09:15:00,
2013-08-28 05:30:00,68.3,43.7,29.84,NW,315,0.0,0.0,41,0.00,,---,0.00,VWS V14.01,2013-08-28 09:30:00,
2013-08-28 05:45:00,68.1,43.5,29.85,NW,315,0.0,0.0,41,0.00,,---,0.00,VWS V14.01,2013-08-28 09:45:00,
2013-08-28 06:00:00,68.1,44.2,29.85,NW,315,0.0,0.0,42,0.00,,---,0.00,VWS V14.01,2013-08-28 10:00:00,
2013-08-28 06:15:00,68.1,44.2,29.86,NW,315,0.0,0.0,42,0.00,,---,0.00,VWS V14.01,2013-08-28 10:15:00,
2013-08-28 06:30:00,68.5,44.5,29.86,NW,315,0.0,1.0,42,0.00,,---,0.00,VWS V14.01,2013-08-28 10:30:00,
2013-08-28 06:45:00,68.5,44.5,29.86,NW,315,0.0,0.0,42,0.00,,---,0.00,VWS V14.01,2013-08-28 10:45:00,
2013-08-28 07:00:00,68.4,45.0,29.87,NW,315,0.0,0.0,43,0.00,,---,0.00,VWS V14.01,2013-08-28 11:00:00,
2013-08-28 07:15:00,69.9,46.4,29.86,NW,315,0.0,0.0,43,0.00,,---,0.00,VWS V14.01,2013-08-28 11:15:00,
2013-08-28 07:30:00,70.9,46.7,29.87,NW,315,0.0,3.0,42,0.00,,---,0.00,VWS V14.01,2013-08-28 11:30:00,
2013-08-28 07:45:00,72.3,48.0,29.87,NW,315,0.0,1.0,42,0.00,,---,0.00,VWS V14.01,2013-08-28 11:45:00,
2013-08-28 08:00:00,73.7,46.5,29.87,NW,315,0.0,0.0,38,0.00,,---,0.00,VWS V14.01,2013-08-28 12:00:00,
2013-08-28 08:15:00,76.0,50.0,29.86,NW,315,0.0,1.0,40,0.00,,---,0.00,VWS V14.01,2013-08-28 12:15:00,
2013-08-28 08:30:00,77.6,54.6,29.86,NW,315,0.0,3.0,45,0.00,,---,0.00,VWS V14.01,2013-08-28 12:30:00,
2013-08-28 08:45:00,78.4,56.5,29.86,NW,315,0.0,2.0,47,0.00,,---,0.00,VWS V14.01,2013-08-28 12:45:00,
2013-08-28 09:00:00,78.7,55.0,29.86,NW,315,0.0,1.0,44,0.00,,---,0.00,VWS V14.01,2013-08-28 13:00:00,
2013-08-28 09:15:00,78.4,55.3,29.86,NW,315,0.0,1.0,45,0.00,,---,0.00,VWS V14.01,2013-08-28 13:15:00,
2013-08-28 09:30:00,78.8,56.9,29.86,NW,315,0.0,0.0,47,0.00,,---,0.00,VWS V14.01,2013-08-28 13:30:00,
2013-08-28 09:45:00,80.0,59.7,29.86,NW,315,0.0,0.0,50,0.00,,---,0.00,VWS V14.01,2013-08-28 13:45:00,
2013-08-28 10:00:00,80.2,59.3,29.86,NW,315,0.0,0.0,49,0.00,,---,0.00,VWS V14.01,2013-08-28 14:00:00,
2013-08-28 10:15:00,80.7,59.8,29.86,NW,315,0.0,0.0,49,0.00,,---,0.00,VWS V14.01,2013-08-28 14:15:00,
2013-08-28 10:30:00,80.9,58.2,29.87,NW,315,0.0,1.0,46,0.00,,---,0.00,VWS V14.01,2013-08-28 14:30:00,
2013-08-28 10:45:00,81.3,61.5,29.87,SSE,158,0.0,4.0,51,0.00,,---,0.00,VWS V14.01,2013-08-28 14:45:00,
2013-08-28 11:00:00,81.2,61.9,29.87,SSW,202,0.0,3.0,52,0.00,,---,0.00,VWS V14.01,2013-08-28 15:00:00,
2013-08-28 11:15:00,81.6,62.8,29.86,SW,225,0.0,4.0,53,0.00,,---,0.00,VWS V14.01,2013-08-28 15:15:00,
2013-08-28 11:30:00,82.7,63.3,29.86,SE,135,0.0,5.0,52,0.00,,---,0.00,VWS V14.01,2013-08-28 15:30:00,
2013-08-28 11:45:00,82.4,63.0,29.86,SSW,202,0.0,3.0,52,0.00,,---,0.00,VWS V14.01,2013-08-28 15:45:00,
2013-08-28 12:00:00,81.4,61.0,29.85,West,270,1.0,5.0,50,0.00,,---,0.00,VWS V14.01,2013-08-28 16:00:00,
2013-08-28 12:15:00,81.0,60.6,29.85,SW,225,1.0,7.0,50,0.00,,---,0.00,VWS V14.01,2013-08-28 16:15:00,
2013-08-28 12:30:00,79.3,56.1,29.85,WSW,248,3.0,11.0,45,0.00,,---,0.00,VWS V14.01,2013-08-28 16:30:00,
2013-08-28 12:45:00,78.0,53.7,29.85,West,270,4.0,10.0,43,0.00,,---,0.00,VWS V14.01,2013-08-28 16:45:00,
2013-08-28 13:00:00,77.0,51.5,29.86,West,270,5.0,15.0,41,0.00,,---,0.00,VWS V14.01,2013-08-28 17:00:00,
2013-08-28 13:15:00,76.2,48.8,29.84,West,270,5.0,13.0,38,0.00,,---,0.00,VWS V14.01,2013-08-28 17:15:00,
2013-08-28 13:30:00,75.7,46.9,29.86,WSW,248,3.0,10.0,36,0.00,,---,0.00,VWS V14.01,2013-08-28 17:30:00,
2013-08-28 13:45:00,74.8,44.6,29.87,West,270,3.0,10.0,34,0.00,,---,0.00,VWS V14.01,2013-08-28 17:45:00,
2013-08-28 14:00:00,74.3,44.1,29.86,WNW,292,3.0,8.0,34,0.00,,---,0.00,VWS V14.01,2013-08-28 18:00:00,
2013-08-28 14:15:00,74.2,44.1,29.86,West,270,1.0,5.0,34,0.00,,---,0.00,VWS V14.01,2013-08-28 18:15:00,
2013-08-28 14:30:00,74.0,43.9,29.86,NW,315,1.0,6.0,34,0.00,,---,0.00,VWS V14.01,2013-08-28 18:30:00,
2013-08-28 14:45:00,73.9,43.8,29.86,NW,315,0.0,4.0,34,0.00,,---,0.00,VWS V14.01,2013-08-28 18:45:00,
2013-08-28 15:00:00,74.6,44.4,29.86,NW,315,0.0,0.0,34,0.00,,---,0.00,VWS V14.01,2013-08-28 19:00:00,
2013-08-28 15:15:00,74.9,44.7,29.86,NW,315,0.0,1.0,34,0.00,,---,0.00,VWS V14.01,2013-08-28 19:15:00,
2013-08-28 15:30:00,75.2,45.7,29.86,NW,315,0.0,0.0,35,0.00,,---,0.00,VWS V14.01,2013-08-28 19:30:00,
2013-08-28 15:45:00,75.0,44.8,29.85,NW,315,0.0,0.0,34,0.00,,---,0.00,VWS V14.01,2013-08-28 19:45:00,
2013-08-28 16:00:00,74.8,44.6,29.84,NW,315,0.0,1.0,34,0.00,,---,0.00,VWS V14.01,2013-08-28 20:00:00,
2013-08-28 16:15:00,74.3,44.1,29.84,NW,315,0.0,2.0,34,0.00,,---,0.00,VWS V14.01,2013-08-28 20:15:00,
2013-08-28 16:30:00,74.3,44.1,29.84,NW,315,0.0,2.0,34,0.00,,---,0.00,VWS V14.01,2013-08-28 20:30:00,
2013-08-28 16:45:00,74.4,44.2,29.84,NW,315,0.0,1.0,34,0.00,,---,0.00,VWS V14.01,2013-08-28 20:45:00,
2013-08-28 17:00:00,74.5,44.3,29.84,NW,315,0.0,1.0,34,0.00,,---,0.00,VWS V14.01,2013-08-28 21:00:00,
2013-08-28 17:15:00,74.7,45.3,29.84,NW,315,0.0,3.0,35,0.00,,---,0.00,VWS V14.01,2013-08-28 21:15:00,
2013-08-28 17:30:00,74.8,45.3,29.84,NW,315,0.0,3.0,35,0.00,,---,0.00,VWS V14.01,2013-08-28 21:30:00,
2013-08-28 17:45:00,74.8,45.3,29.84,NW,315,0.0,1.0,35,0.00,,---,0.00,VWS V14.01,2013-08-28 21:45:00,
2013-08-28 18:00:00,74.8,45.3,29.84,NNE,22,0.0,4.0,35,0.00,,---,0.00,VWS V14.01,2013-08-28 22:00:00,
2013-08-28 18:15:00,74.7,45.3,29.84,NNE,22,0.0,0.0,35,0.00,,---,0.00,VWS V14.01,2013-08-28 22:15:00,
2013-08-28 18:30:00,74.8,45.3,29.84,NNE,22,0.0,1.0,35,0.00,,---,0.00,VWS V14.01,2013-08-28 22:30:00,
2013-08-28 18:45:00,74.7,45.3,29.84,NNE,22,0.0,1.0,35,0.00,,---,0.00,VWS V14.01,2013-08-28 22:45:00,
2013-08-28 19:00:00,74.6,45.2,29.84,NNE,22,0.0,0.0,35,0.00,,---,0.00,VWS V14.01,2013-08-28 23:00:00,
2013-08-28 19:15:00,74.4,45.0,29.84,NNE,22,0.0,0.0,35,0.00,,---,0.00,VWS V14.01,2013-08-28 23:15:00,
2013-08-28 19:30:00,74.2,44.8,29.84,NNE,22,0.0,0.0,35,0.00,,---,0.00,VWS V14.01,2013-08-28 23:30:00,
2013-08-28 19:45:00,74.0,45.4,29.84,NNE,22,0.0,1.0,36,0.00,,---,0.00,VWS V14.01,2013-08-28 23:45:00,
2013-08-28 20:00:00,73.6,45.0,29.84,NNE,22,0.0,0.0,36,0.00,,---,0.00,VWS V14.01,2013-08-29 00:00:00,
2013-08-28 20:15:00,73.4,45.6,29.84,NNE,22,0.0,0.0,37,0.00,,---,0.00,VWS V14.01,2013-08-29 00:15:00,
2013-08-28 20:30:00,72.9,45.1,29.84,NNE,22,0.0,0.0,37,0.00,,---,0.00,VWS V14.01,2013-08-29 00:30:00,
2013-08-28 20:45:00,72.9,45.8,29.83,NNE,22,0.0,0.0,38,0.00,,---,0.00,VWS V14.01,2013-08-29 00:45:00,
2013-08-28 21:00:00,72.7,45.7,29.85,NNE,22,0.0,1.0,38,0.00,,---,0.00,VWS V14.01,2013-08-29 01:00:00,
2013-08-28 21:15:00,72.8,46.4,29.86,NNE,22,0.0,4.0,39,0.00,,---,0.00,VWS V14.01,2013-08-29 01:15:00,
2013-08-28 21:30:00,72.5,46.2,29.87,NNE,22,0.0,0.0,39,0.00,,---,0.00,VWS V14.01,2013-08-29 01:30:00,
2013-08-28 21:45:00,72.4,46.7,29.88,NNE,22,0.0,0.0,40,0.00,,---,0.00,VWS V14.01,2013-08-29 01:45:00,
2013-08-28 22:00:00,72.4,46.7,29.88,NNE,22,0.0,3.0,40,0.00,,---,0.00,VWS V14.01,2013-08-29 02:00:00,
2013-08-28 22:15:00,72.5,46.8,29.88,NNE,22,0.0,1.0,40,0.00,,---,0.00,VWS V14.01,2013-08-29 02:15:00,
2013-08-28 22:30:00,72.5,47.5,29.88,NNE,22,0.0,3.0,41,0.00,,---,0.00,VWS V14.01,2013-08-29 02:30:00,
2013-08-28 22:45:00,72.5,47.5,29.87,NE,45,0.0,4.0,41,0.00,,---,0.00,VWS V14.01,2013-08-29 02:45:00,
2013-08-28 23:00:00,72.2,47.2,29.88,NE,45,0.0,0.0,41,0.00,,---,0.00,VWS V14.01,2013-08-29 03:00:00,
2013-08-28 23:15:00,71.8,46.9,29.88,NE,45,0.0,0.0,41,0.00,,---,0.00,VWS V14.01,2013-08-29 03:15:00,
2013-08-28 23:30:00,71.3,46.4,29.87,NE,45,0.0,0.0,41,0.00,,---,0.00,VWS V14.01,2013-08-29 03:30:00,
2013-08-28 23:45:00,71.0,46.1,29.88,NE,45,0.0,0.0,41,0.00,,---,0.00,VWS V14.01,2013-08-29 03:45:00,